Regional Weather Roundup
Issued by NWS

Home | Current Version | Previous Version | Text Only | Print | Product List | Glossary Off
Versions: 1 2 3 4 5 6 7 8 9 10 11 12 13 14 15 16 17 18 19 20 21 22 23 24 25 26 27 28 29 30 31 32 33 34 35 36 37 38 39 40 41 42 43 44 45 46 47 48 49 50

000
ASUS43 KBIS 300402
RWRND

NORTH DAKOTA REGIONAL WEATHER ROUNDUP
NATIONAL WEATHER SERVICE BISMARCK ND
1100 PM CDT FRI JUL 29 2016

NOTE: "FAIR" INDICATES FEW OR NO CLOUDS BELOW 12,000 FEET WITH NO
SIGNIFICANT WEATHER AND/OR OBSTRUCTIONS TO VISIBILITY.


NDZ001>003-009>011-017-300500-
NORTHWEST NORTH DAKOTA

CITY           SKY/WX    TMP DP  RH WIND       PRES   REMARKS
WILLISTON      CLEAR     69  59  70 E7        29.96S
MINOT          CLEAR     71  61  70 SE7       29.96R
MINOT AFB      CLEAR     69  59  72 S3        29.95R
$$

NDZ018>021-031>035-040>046-300500-
SOUTHWEST NORTH DAKOTA

CITY           SKY/WX    TMP DP  RH WIND       PRES   REMARKS
BISMARCK       CLEAR     66  62  87 E5        29.97F
DICKINSON      CLEAR     64  59  83 SE7       29.97S
GARRISON         N/A     68  63  84 E7        29.96F
HETTINGER ARPT CLEAR     67  58  72 E7        29.99S
$$

NDZ004>008-012>016-024-026-027-054-300500-
NORTHEAST NORTH DAKOTA

CITY           SKY/WX    TMP DP  RH WIND       PRES   REMARKS
GRAND FORKS    CLEAR     65  58  78 SE5       29.99R
GRND FRKS AFB  CLEAR     64  57  80 SE2       30.00R
DEVILS LAKE    CLOUDY    66  61  84 E6        30.00S
$$

NDZ022-023-025-028>030-036>039-047>053-300500-
SOUTHEAST NORTH DAKOTA

CITY           SKY/WX    TMP DP  RH WIND       PRES   REMARKS
FARGO          CLOUDY    71  63  75 S8        30.01R
JAMESTOWN      CLEAR     66  62  87 SE6       30.00S
$$





USA.gov is the U.S. government's official web portal to all federal, state and local government web resources and services.